Simultaneous Nadir Overpasses (SNOs) Predictions

Prediction of SNOs between AQUA and GOES-15 Satellite Orbit:

Table of predicted SNOs for the next 14.0 days since TLE Epoch: 12/14/2013
Index Date Time (AQUA) AQUA Lat,Lon GOES-15 Lat,Lon Distance(km) Time Diff (sec)
1 12/14/2013 10:26:30 -0.62,-132.80 -0.08,-135.27 281.60 80
2 12/14/2013 22:47:53 -0.51,-137.98 0.09,-135.23 313.90 80
3 12/16/2013 22:35:38 0.13,-135.01 0.09,-135.18 19.45 80
4 12/18/2013 22:23:22 0.75,-132.03 0.08,-135.13 352.54 80
5 12/19/2013 10:44:36 0.36,-137.18 -0.10,-135.15 231.18 80
6 12/21/2013 10:32:20 -0.30,-134.21 -0.09,-135.10 101.67 80
7 12/21/2013 22:53:43 -0.79,-139.39 0.11,-135.05 493.61 80
8 12/23/2013 10:20:02 -0.88,-131.21 -0.09,-135.04 434.33 80
9 12/23/2013 22:41:25 -0.20,-136.40 0.11,-134.99 161.04 80
10 12/25/2013 22:29:07 0.42,-133.41 0.10,-134.92 171.20 80
11 12/26/2013 10:50:21 0.66,-138.56 -0.12,-134.93 413.09 80




NCC Satellite Simultaneous Nadir Overpasses (SNOs) Prediction Service
